Location: Firdgum
(53.2488°N, 5.5615°E)
Time: 20:24:20
(UTC+00:00)

ALOS - Pass Details

Date: 08 December 2019
Orbit: 683 x 685 km, 97.8° (Epoch: 28 January)

Event Time Altitude Azimuth Distance (km) Brightness Sun altitude
Rises 04:59:04 0° 16° (NNE) 3,067 5.7 -22.4°
Reaches altitude 10° 05:01:21 10° 19° (NNE) 2,147 4.9 -22.1°
Maximum altitude 05:06:01 65° 101° (ESE) 757 2.6 -21.4°
Drops below altitude 10° 05:10:39 10° 184° (S) 2,129 4.9 -20.7°
Sets 05:12:54 0° 188° (S) 3,040 5.7 -20.4°
